UAE557 ENGM-EGLL

Flight info

Callsign UAE557
Flight time N/A
Altitude 40000
Route VIPPA DCT LINVI L39 GOLUM DCT UPGAS DCT TIPAN DCT WECOW DCT BINBO DCT AKOKO N866 BUKUT P7 BARMI
Aircraft B748

Departure

Time N/A
Airport Oslo-Gardermoen International Airport (ENGM)

Arrival

Time 2026-05-07 21:05
Airport London Heathrow Airport (EGLL)
Time Latitude Longitude Altitude Speed Heading
2026-05-07 20:45 51.45697 -0.18930 3225 ft 253 kts 97°
2026-05-07 20:45 51.45473 -0.16126 3605 ft 254 kts 97°
2026-05-07 20:45 51.45244 -0.13305 3988 ft 256 kts 98°
2026-05-07 20:45 51.45010 -0.10472 4374 ft 257 kts 98°
2026-05-07 20:46 51.44776 -0.07653 4754 ft 259 kts 98°
2026-05-07 20:46 51.44533 -0.04771 4993 ft 263 kts 98°
2026-05-07 20:46 51.44287 -0.01875 4983 ft 261 kts 98°
2026-05-07 20:46 51.44041 0.01006 4994 ft 261 kts 98°
2026-05-07 20:47 51.43792 0.03897 4994 ft 262 kts 98°
2026-05-07 20:47 51.43542 0.06800 4990 ft 263 kts 98°
2026-05-07 20:47 51.43291 0.09696 4995 ft 262 kts 98°
2026-05-07 20:47 51.43041 0.12586 4992 ft 261 kts 98°
2026-05-07 20:48 51.42790 0.15476 4992 ft 262 kts 98°
2026-05-07 20:48 51.42470 0.18349 4996 ft 262 kts 110°
2026-05-07 20:48 51.41461 0.20744 5012 ft 262 kts 140°
2026-05-07 20:48 51.39870 0.22050 5018 ft 264 kts 168°
2026-05-07 20:49 51.38047 0.21967 5014 ft 265 kts 197°
2026-05-07 20:49 51.36467 0.20488 5014 ft 267 kts 226°
2026-05-07 20:49 51.35515 0.17962 5018 ft 269 kts 254°
2026-05-07 20:49 51.35261 0.15002 5009 ft 266 kts 268°
2026-05-07 20:50 51.35240 0.12102 5003 ft 257 kts 270°
2026-05-07 20:50 51.35267 0.09285 4996 ft 248 kts 271°
2026-05-07 20:50 51.35303 0.06571 4995 ft 240 kts 271°
2026-05-07 20:50 51.35340 0.03903 4992 ft 239 kts 271°
2026-05-07 20:51 51.35376 0.01247 4994 ft 239 kts 271°
2026-05-07 20:51 51.35413 -0.01406 4989 ft 239 kts 271°
2026-05-07 20:51 51.35453 -0.04073 4984 ft 239 kts 271°
2026-05-07 20:51 51.35492 -0.06736 4990 ft 239 kts 271°
2026-05-07 20:52 51.35532 -0.09401 4991 ft 240 kts 271°
2026-05-07 20:52 51.35571 -0.12072 4990 ft 240 kts 271°
2026-05-07 20:52 51.35610 -0.14742 4987 ft 240 kts 271°
2026-05-07 20:52 51.35649 -0.17401 4990 ft 239 kts 271°
2026-05-07 20:53 51.35689 -0.20071 4991 ft 240 kts 271°
2026-05-07 20:53 51.35729 -0.22739 4988 ft 239 kts 271°
2026-05-07 20:53 51.35769 -0.25404 4992 ft 240 kts 271°
2026-05-07 20:53 51.35808 -0.28072 4988 ft 240 kts 271°
2026-05-07 20:54 51.35847 -0.30737 4993 ft 240 kts 271°
2026-05-07 20:54 51.35886 -0.33384 4993 ft 240 kts 271°
2026-05-07 20:54 51.35925 -0.36050 4991 ft 240 kts 271°
2026-05-07 20:54 51.35963 -0.38717 4997 ft 239 kts 271°
2026-05-07 20:55 51.36000 -0.41386 4993 ft 240 kts 271°
2026-05-07 20:55 51.36037 -0.44047 4994 ft 240 kts 271°
2026-05-07 20:55 51.36075 -0.46710 4989 ft 237 kts 271°
2026-05-07 20:55 51.36112 -0.49301 4982 ft 231 kts 271°
2026-05-07 20:56 51.36148 -0.51867 4989 ft 230 kts 271°
2026-05-07 20:56 51.36184 -0.54426 4993 ft 230 kts 271°
2026-05-07 20:56 51.36219 -0.56989 4860 ft 232 kts 271°
2026-05-07 20:56 51.36255 -0.59592 4645 ft 234 kts 271°
2026-05-07 20:57 51.36291 -0.62206 4441 ft 236 kts 271°
2026-05-07 20:57 51.36329 -0.64843 4249 ft 238 kts 271°
2026-05-07 20:57 51.36368 -0.67493 4042 ft 239 kts 271°
2026-05-07 20:57 51.36409 -0.70153 3845 ft 240 kts 271°
2026-05-07 20:58 51.36452 -0.72825 3643 ft 241 kts 271°
2026-05-07 20:58 51.36495 -0.75507 3459 ft 242 kts 271°
2026-05-07 20:58 51.36631 -0.78188 3250 ft 242 kts 285°
2026-05-07 20:58 51.37451 -0.80503 3078 ft 241 kts 318°
2026-05-07 20:59 51.38871 -0.81736 3070 ft 230 kts 350°
2026-05-07 20:59 51.40409 -0.82030 3076 ft 214 kts 358°
2026-05-07 20:59 51.41830 -0.82125 3066 ft 195 kts 359°
2026-05-07 20:59 51.43174 -0.82130 3068 ft 193 kts
2026-05-07 21:00 51.44350 -0.81287 3077 ft 185 kts 47°
2026-05-07 21:00 51.45115 -0.79621 3070 ft 186 kts 59°
2026-05-07 21:00 51.45784 -0.77880 3076 ft 179 kts 60°
2026-05-07 21:00 51.46396 -0.76231 3048 ft 166 kts 65°
2026-05-07 21:01 51.46776 -0.74504 3069 ft 166 kts 73°
2026-05-07 21:01 51.47104 -0.72743 3068 ft 163 kts 78°
2026-05-07 21:01 51.47325 -0.70956 3090 ft 163 kts 82°
2026-05-07 21:01 51.47498 -0.69158 2983 ft 162 kts 83°
2026-05-07 21:02 51.47596 -0.67354 2853 ft 162 kts 87°
2026-05-07 21:02 51.47673 -0.65596 2712 ft 154 kts 88°
2026-05-07 21:02 51.47737 -0.63880 2432 ft 153 kts 90°
2026-05-07 21:02 51.47772 -0.62207 2129 ft 148 kts 90°
2026-05-07 21:03 51.47780 -0.60574 1816 ft 145 kts 92°
2026-05-07 21:03 51.47786 -0.58953 1495 ft 145 kts 94°
2026-05-07 21:03 51.47716 -0.57348 1230 ft 145 kts 95°
2026-05-07 21:03 51.47693 -0.55731 1029 ft 141 kts 92°
2026-05-07 21:04 51.47697 -0.54120 970 ft 148 kts 92°
2026-05-07 21:04 51.47699 -0.52495 825 ft 142 kts 92°
2026-05-07 21:04 51.47731 -0.50946 609 ft 137 kts 89°
2026-05-07 21:04 51.47745 -0.49423 348 ft 136 kts 92°
2026-05-07 21:05 51.47753 -0.47911 128 ft 135 kts 91°
2026-05-07 21:05 51.47757 -0.46530 106 ft 101 kts 89°
2026-05-07 21:05 51.47759 -0.45690 97 ft 51 kts 89°
2026-05-07 21:05 51.47758 -0.45311 102 ft 27 kts 93°
2026-05-07 21:06 51.47702 -0.45189 103 ft 9 kts 171°
2026-05-07 21:06 51.47646 -0.45175 103 ft 8 kts 176°
2026-05-07 21:06 51.47590 -0.45174 101 ft 8 kts 181°
2026-05-07 21:06 51.47543 -0.45198 103 ft 7 kts 213°
2026-05-07 21:07 51.47512 -0.45267 102 ft 8 kts 253°
2026-05-07 21:07 51.47507 -0.45358 102 ft 9 kts 268°
2026-05-07 21:07 51.47506 -0.45450 103 ft 8 kts 269°
2026-05-07 21:07 51.47507 -0.45530 103 ft 7 kts 271°
2026-05-07 21:08 51.47508 -0.45610 104 ft 8 kts 271°
2026-05-07 21:08 51.47512 -0.45707 102 ft 10 kts 277°
2026-05-07 21:08 51.47519 -0.45828 98 ft 11 kts 274°
2026-05-07 21:08 51.47519 -0.45951 100 ft 10 kts 269°
2026-05-07 21:09 51.47518 -0.46057 101 ft 9 kts 269°
2026-05-07 21:09 51.47516 -0.46166 100 ft 11 kts 268°
2026-05-07 21:09 51.47516 -0.46296 99 ft 12 kts 271°
2026-05-07 21:09 51.47506 -0.46397 103 ft 6 kts 232°
2026-05-07 21:10 51.47484 -0.46416 102 ft 2 kts 189°
2026-05-07 21:10 51.47460 -0.46413 102 ft 4 kts 178°
2026-05-07 21:10 51.47426 -0.46412 101 ft 0 kts 178°